DAL480 KLAX-PHNL

Flight info

Callsign DAL480
Flight time 5h 32m
Altitude 36000
Route SUMMR2 DINTY ADUMM BARAZ R464 BITTA KAENA4
Aircraft MD11/H-SDE1E2E3FGHIJ2J3J4J5M1RWXY/LB1D1

Departure

Time 2026-04-20 16:29
Airport Los Angeles International Airport (KLAX)

Arrival

Time 2026-04-20 22:02
Airport Daniel K. Inouye International Airport (PHNL)
Time Latitude Longitude Altitude Speed Heading
2026-04-20 16:03 33.94521 -118.41142 103 ft 0 kts 97°
2026-04-20 16:20 33.94521 -118.41149 100 ft 4 kts 97°
2026-04-20 16:21 33.94525 -118.41181 100 ft 4 kts 97°
2026-04-20 16:21 33.94528 -118.41213 100 ft 4 kts 99°
2026-04-20 16:21 33.94532 -118.41241 100 ft 4 kts 71°
2026-04-20 16:21 33.94524 -118.41257 100 ft 4 kts 16°
2026-04-20 16:22 33.94499 -118.41262 100 ft 4 kts
2026-04-20 16:22 33.94493 -118.41262 100 ft 1 kts
2026-04-20 16:25 33.94576 -118.41271 101 ft 23 kts 353°
2026-04-20 16:25 33.94736 -118.41292 101 ft 21 kts 359°
2026-04-20 16:25 33.94802 -118.41194 105 ft 14 kts 82°
2026-04-20 16:26 33.94818 -118.41056 104 ft 23 kts 82°
2026-04-20 16:26 33.94841 -118.40840 102 ft 26 kts 82°
2026-04-20 16:26 33.94861 -118.40636 104 ft 23 kts 84°
2026-04-20 16:26 33.94878 -118.40448 104 ft 23 kts 84°
2026-04-20 16:27 33.94897 -118.40260 102 ft 22 kts 83°
2026-04-20 16:27 33.94915 -118.40077 102 ft 22 kts 83°
2026-04-20 16:27 33.94934 -118.39942 100 ft 2 kts 57°
2026-04-20 16:27 33.94937 -118.39941 100 ft 0 kts 36°
2026-04-20 16:28 33.95011 -118.39918 102 ft 14 kts
2026-04-20 16:28 33.95034 -118.39937 102 ft 5 kts 298°
2026-04-20 16:28 33.95036 -118.39977 100 ft 0 kts 265°
2026-04-20 16:29 33.95012 -118.40235 105 ft 72 kts 263°
2026-04-20 16:29 33.94919 -118.41158 105 ft 146 kts 263°
2026-04-20 16:29 33.94772 -118.42579 264 ft 182 kts 262°
2026-04-20 16:29 33.94599 -118.44122 918 ft 191 kts 262°
2026-04-20 16:30 33.94420 -118.45745 1700 ft 198 kts 263°
2026-04-20 16:30 33.94255 -118.47384 2632 ft 201 kts 264°
2026-04-20 16:30 33.94122 -118.49096 3485 ft 207 kts 265°
2026-04-20 16:30 33.94011 -118.50842 4394 ft 208 kts 265°
2026-04-20 16:31 33.93905 -118.52588 5113 ft 212 kts 266°
2026-04-20 16:31 33.93810 -118.54356 5764 ft 215 kts 266°
2026-04-20 16:31 33.93705 -118.56170 6413 ft 218 kts 265°
2026-04-20 16:31 33.93588 -118.58034 6804 ft 240 kts 265°
2026-04-20 16:32 33.93445 -118.60146 6957 ft 265 kts 264°
2026-04-20 16:32 33.93286 -118.62396 7495 ft 271 kts 264°
2026-04-20 16:32 33.93120 -118.64680 8128 ft 276 kts 264°
2026-04-20 16:32 33.92935 -118.66997 8757 ft 280 kts 263°
2026-04-20 16:33 33.92707 -118.69350 9395 ft 284 kts 262°
2026-04-20 16:33 33.92468 -118.71722 10018 ft 287 kts 261°
2026-04-20 16:33 33.92226 -118.74131 10641 ft 291 kts 261°
2026-04-20 16:33 33.91984 -118.76564 11280 ft 294 kts 261°
2026-04-20 16:34 33.91745 -118.78993 11902 ft 298 kts 261°
2026-04-20 16:34 33.91498 -118.81484 12538 ft 301 kts 260°
2026-04-20 16:34 33.91248 -118.84006 13162 ft 304 kts 261°
2026-04-20 16:34 33.90996 -118.86558 13794 ft 307 kts 261°
2026-04-20 16:35 33.90741 -118.89125 14421 ft 310 kts 261°
2026-04-20 16:35 33.90488 -118.91689 15054 ft 313 kts 261°
2026-04-20 16:35 33.90230 -118.94301 15681 ft 315 kts 261°
2026-04-20 16:35 33.89970 -118.96936 16297 ft 317 kts 261°
2026-04-20 16:36 33.89707 -118.99583 16926 ft 319 kts 261°
2026-04-20 16:36 33.89448 -119.02195 17545 ft 320 kts 261°
2026-04-20 16:36 33.89186 -119.04839 18168 ft 321 kts 261°
2026-04-20 16:36 33.88917 -119.07523 18794 ft 321 kts 261°
2026-04-20 16:37 33.88649 -119.10193 19420 ft 321 kts 261°
2026-04-20 16:37 33.88381 -119.12862 20046 ft 321 kts 261°
2026-04-20 16:37 33.88117 -119.15491 20664 ft 320 kts 261°
2026-04-20 16:37 33.87849 -119.18152 21296 ft 319 kts 261°
2026-04-20 16:38 33.87579 -119.20826 21619 ft 330 kts 261°
2026-04-20 16:38 33.87291 -119.23653 21631 ft 348 kts 261°
2026-04-20 16:38 33.86993 -119.26567 21746 ft 361 kts 261°
2026-04-20 16:38 33.86684 -119.29617 21878 ft 373 kts 261°
2026-04-20 16:39 33.86361 -119.32783 22008 ft 385 kts 261°
2026-04-20 16:39 33.86031 -119.36002 22137 ft 397 kts 261°
2026-04-20 16:39 33.85689 -119.39342 22284 ft 407 kts 261°
2026-04-20 16:39 33.85340 -119.42742 22687 ft 410 kts 261°
2026-04-20 16:40 33.84988 -119.46172 23122 ft 413 kts 261°
2026-04-20 16:40 33.84632 -119.49619 23573 ft 415 kts 261°
2026-04-20 16:40 33.84279 -119.53042 24015 ft 417 kts 261°
2026-04-20 16:40 33.83918 -119.56514 24432 ft 419 kts 261°
2026-04-20 16:41 33.83554 -119.60006 24813 ft 422 kts 261°
2026-04-20 16:41 33.83184 -119.63530 25202 ft 424 kts 261°
2026-04-20 16:41 33.82803 -119.67063 25605 ft 426 kts 261°
2026-04-20 16:41 33.82416 -119.70612 25953 ft 429 kts 261°
2026-04-20 16:42 33.82034 -119.74140 26306 ft 432 kts 261°
2026-04-20 16:42 33.81648 -119.77737 26668 ft 434 kts 261°
2026-04-20 16:42 33.81263 -119.81344 27021 ft 436 kts 261°
2026-04-20 16:42 33.80877 -119.84974 27344 ft 438 kts 261°
2026-04-20 16:43 33.80487 -119.88632 27660 ft 441 kts 261°
2026-04-20 16:43 33.80094 -119.92304 28010 ft 443 kts 261°
2026-04-20 16:43 33.79699 -119.95984 28316 ft 445 kts 261°
2026-04-20 16:43 33.79305 -119.99644 28628 ft 447 kts 261°
2026-04-20 16:44 33.78903 -120.03365 28894 ft 449 kts 261°
2026-04-20 16:44 33.78499 -120.07106 29194 ft 451 kts 261°
2026-04-20 16:44 33.78091 -120.10867 29490 ft 453 kts 261°
2026-04-20 16:44 33.77687 -120.14589 29781 ft 455 kts 261°
2026-04-20 16:45 33.77274 -120.18374 30069 ft 457 kts 261°
2026-04-20 16:45 33.76857 -120.22178 30356 ft 459 kts 261°
2026-04-20 16:45 33.76438 -120.26006 30614 ft 462 kts 261°
2026-04-20 16:45 33.76016 -120.29845 30966 ft 462 kts 261°
2026-04-20 16:46 33.75598 -120.33631 31319 ft 462 kts 261°
2026-04-20 16:46 33.75174 -120.37472 31664 ft 461 kts 261°
2026-04-20 16:46 33.74749 -120.41303 31998 ft 461 kts 261°
2026-04-20 16:46 33.74328 -120.45087 32308 ft 461 kts 261°
2026-04-20 16:47 33.73901 -120.48909 32637 ft 460 kts 261°
2026-04-20 16:47 33.73471 -120.52739 32927 ft 460 kts 261°
2026-04-20 16:47 33.73040 -120.56565 33209 ft 460 kts 261°
2026-04-20 16:47 33.72611 -120.60378 33481 ft 460 kts 261°
2026-04-20 16:48 33.72176 -120.64185 33768 ft 459 kts 261°
2026-04-20 16:48 33.71738 -120.67939 34020 ft 459 kts 261°
2026-04-20 16:48 33.71294 -120.71736 34274 ft 459 kts 261°
2026-04-20 16:48 33.70851 -120.75554 34520 ft 458 kts 261°
2026-04-20 16:49 33.70412 -120.79354 34757 ft 458 kts 261°
2026-04-20 16:49 33.69983 -120.83093 35009 ft 457 kts 261°
2026-04-20 16:49 33.69547 -120.86890 35228 ft 457 kts 261°
2026-04-20 16:49 33.69111 -120.90681 35451 ft 456 kts 261°
2026-04-20 16:50 33.68681 -120.94407 35650 ft 455 kts 261°
2026-04-20 16:50 33.68243 -120.98183 35844 ft 455 kts 261°
2026-04-20 16:50 33.67805 -121.01943 36016 ft 455 kts 261°
2026-04-20 16:50 33.67363 -121.05730 36059 ft 458 kts 261°
2026-04-20 16:51 33.66472 -121.13346 36062 ft 463 kts 261°
2026-04-20 16:51 33.65570 -121.21024 36055 ft 466 kts 261°
2026-04-20 16:52 33.64667 -121.28674 36264 ft 463 kts 260°
2026-04-20 16:52 33.64213 -121.32508 36387 ft 462 kts 260°
2026-04-20 16:52 33.63912 -121.35039 36471 ft 461 kts 260°
2026-04-20 16:53 33.63458 -121.38845 36595 ft 460 kts 260°
2026-04-20 16:53 33.62856 -121.43875 36762 ft 458 kts 260°
2026-04-20 16:53 33.62404 -121.47650 36888 ft 456 kts 260°
2026-04-20 16:53 33.61952 -121.51412 37012 ft 454 kts 260°
2026-04-20 16:54 33.61201 -121.57624 37217 ft 451 kts 260°
2026-04-20 16:54 33.60749 -121.61342 37342 ft 449 kts 260°
2026-04-20 16:54 33.60289 -121.65046 37469 ft 448 kts 259°
2026-04-20 16:55 33.59825 -121.68755 37591 ft 447 kts 259°
2026-04-20 16:55 33.59370 -121.72399 37713 ft 447 kts 259°
2026-04-20 16:55 33.58913 -121.76082 37837 ft 446 kts 259°
2026-04-20 16:55 33.58457 -121.79768 37962 ft 445 kts 259°
2026-04-20 16:56 33.57546 -121.87140 38050 ft 447 kts 259°
2026-04-20 16:56 33.56636 -121.94502 38055 ft 450 kts 259°
2026-04-20 16:57 33.55709 -122.01959 38056 ft 452 kts 259°
2026-04-20 16:57 33.54772 -122.09435 38054 ft 453 kts 259°
2026-04-20 16:58 33.53838 -122.16873 38054 ft 454 kts 259°
2026-04-20 16:58 33.52893 -122.24365 38054 ft 454 kts 259°
2026-04-20 16:59 33.51942 -122.31860 38047 ft 454 kts 259°
2026-04-20 16:59 33.50993 -122.39302 38045 ft 454 kts 259°
2026-04-20 17:00 33.49553 -122.50524 38045 ft 454 kts 259°
2026-04-20 17:01 33.48659 -122.57967 38052 ft 454 kts 264°
2026-04-20 17:01 33.48871 -122.65568 38055 ft 457 kts 273°
2026-04-20 17:02 33.49626 -122.73114 38054 ft 458 kts 274°
2026-04-20 17:02 33.50369 -122.80721 38054 ft 458 kts 273°
2026-04-20 17:03 33.51040 -122.88314 38054 ft 457 kts 273°
2026-04-20 17:03 33.51678 -122.95857 38054 ft 457 kts 272°
2026-04-20 17:04 33.52316 -123.03461 38055 ft 458 kts 272°
2026-04-20 17:04 33.52949 -123.11067 38054 ft 458 kts 272°
2026-04-20 17:05 33.53576 -123.18643 38054 ft 458 kts 272°
2026-04-20 17:05 33.54201 -123.26244 38054 ft 458 kts 272°
2026-04-20 17:06 33.54818 -123.33801 38054 ft 458 kts 272°
2026-04-20 17:06 33.55436 -123.41427 38054 ft 459 kts 272°
2026-04-20 17:07 33.56046 -123.49025 38054 ft 459 kts 272°
2026-04-20 17:07 33.56654 -123.56665 38054 ft 459 kts 272°
2026-04-20 17:08 33.57230 -123.64256 38054 ft 459 kts 272°
2026-04-20 17:08 33.57812 -123.71907 38052 ft 459 kts 272°
2026-04-20 17:09 33.58399 -123.79496 38048 ft 459 kts 272°
2026-04-20 17:09 33.58986 -123.87112 38054 ft 460 kts 272°
2026-04-20 17:10 33.59573 -123.94757 38054 ft 460 kts 271°
2026-04-20 17:10 33.60154 -124.02401 38054 ft 459 kts 271°
2026-04-20 17:11 33.60727 -124.10005 38055 ft 460 kts 271°
2026-04-20 17:11 33.61301 -124.17674 38055 ft 460 kts 271°
2026-04-20 17:12 33.61864 -124.25287 38042 ft 461 kts 271°
2026-04-20 17:12 33.62427 -124.32955 38036 ft 460 kts 271°
2026-04-20 17:13 33.62987 -124.40616 38036 ft 460 kts 271°
2026-04-20 17:13 33.63536 -124.48222 38036 ft 459 kts 271°
2026-04-20 17:14 33.64082 -124.55857 38036 ft 459 kts 271°
2026-04-20 17:14 33.64600 -124.63502 38035 ft 458 kts 271°
2026-04-20 17:15 33.65116 -124.71096 38036 ft 458 kts 271°
2026-04-20 17:15 33.65642 -124.78719 38036 ft 457 kts 271°
2026-04-20 17:16 33.66162 -124.86270 38036 ft 456 kts 271°
2026-04-20 17:16 33.66682 -124.93858 38036 ft 455 kts 271°
2026-04-20 17:17 33.67196 -125.01426 38036 ft 454 kts 271°
2026-04-20 17:17 33.67702 -125.08950 38036 ft 454 kts 271°
2026-04-20 17:18 33.68205 -125.16520 38036 ft 453 kts 271°
2026-04-20 17:18 33.68701 -125.24017 38036 ft 453 kts 271°
2026-04-20 17:19 33.69193 -125.31561 38035 ft 452 kts 271°
2026-04-20 17:19 33.69681 -125.39104 38036 ft 452 kts 271°
2026-04-20 17:20 33.70162 -125.46580 38036 ft 451 kts 270°
2026-04-20 17:20 33.70640 -125.54108 38035 ft 451 kts 270°
2026-04-20 17:21 33.71091 -125.61577 38036 ft 450 kts 270°
2026-04-20 17:21 33.71538 -125.69099 38036 ft 450 kts 270°
2026-04-20 17:22 33.71991 -125.76570 38036 ft 450 kts 270°
2026-04-20 17:22 33.72448 -125.84040 38036 ft 450 kts 270°
2026-04-20 17:23 33.72902 -125.91554 38036 ft 449 kts 270°
2026-04-20 17:23 33.73349 -125.99007 38036 ft 449 kts 270°
2026-04-20 17:24 33.73793 -126.06507 38036 ft 449 kts 270°
2026-04-20 17:24 33.74229 -126.13945 38036 ft 448 kts 270°
2026-04-20 17:25 33.74664 -126.21428 38036 ft 448 kts 270°
2026-04-20 17:25 33.75090 -126.28869 38036 ft 448 kts 270°
2026-04-20 17:26 33.75514 -126.36344 38036 ft 448 kts 270°
2026-04-20 17:26 33.75934 -126.43826 38036 ft 448 kts 270°
2026-04-20 17:27 33.76350 -126.51297 38036 ft 447 kts 270°
2026-04-20 17:27 33.76749 -126.58709 38036 ft 447 kts 270°
2026-04-20 17:28 33.77131 -126.66175 38036 ft 446 kts 270°
2026-04-20 17:28 33.77520 -126.73638 38036 ft 446 kts 270°
2026-04-20 17:29 33.77910 -126.81051 38036 ft 446 kts 270°
2026-04-20 17:29 33.78303 -126.88494 38036 ft 445 kts 270°
2026-04-20 17:30 33.78687 -126.95872 38019 ft 444 kts 270°
2026-04-20 17:30 33.79068 -127.03305 38017 ft 443 kts 269°
2026-04-20 17:31 33.79439 -127.10654 38017 ft 442 kts 269°
2026-04-20 17:31 33.79810 -127.18031 38017 ft 441 kts 269°
2026-04-20 17:32 33.80175 -127.25403 38017 ft 441 kts 269°
2026-04-20 17:32 33.80535 -127.32755 38017 ft 440 kts 269°
2026-04-20 17:33 33.80887 -127.40058 38017 ft 440 kts 269°
2026-04-20 17:33 33.81235 -127.47372 38017 ft 438 kts 269°
2026-04-20 17:34 33.81578 -127.54677 38017 ft 438 kts 269°
2026-04-20 17:34 33.81896 -127.61989 38017 ft 437 kts 268°
2026-04-20 17:35 33.82213 -127.69287 38017 ft 437 kts 269°
2026-04-20 17:35 33.82540 -127.76588 38017 ft 437 kts 268°
2026-04-20 17:36 33.82865 -127.83869 38017 ft 437 kts 269°
2026-04-20 17:36 33.83187 -127.91154 38017 ft 436 kts 268°
2026-04-20 17:37 33.83504 -127.98440 38017 ft 436 kts 268°
2026-04-20 17:37 33.83814 -128.05686 38017 ft 436 kts 268°
2026-04-20 17:38 33.84124 -128.12977 38017 ft 436 kts 268°
2026-04-20 17:38 33.84427 -128.20256 38023 ft 436 kts 268°
2026-04-20 17:39 33.84726 -128.27519 38029 ft 436 kts 268°
2026-04-20 17:39 33.85024 -128.34826 38027 ft 436 kts 268°
2026-04-20 17:40 33.85312 -128.42098 38030 ft 436 kts 268°
2026-04-20 17:40 33.85599 -128.49359 38029 ft 435 kts 268°
2026-04-20 17:41 33.85879 -128.56617 38026 ft 434 kts 268°
2026-04-20 17:41 33.86129 -128.63861 38026 ft 433 kts 268°
2026-04-20 17:42 33.86387 -128.71096 38026 ft 433 kts 268°
2026-04-20 17:42 33.86657 -128.78307 38025 ft 433 kts 268°
2026-04-20 17:43 33.86997 -128.85554 38025 ft 433 kts 269°
2026-04-20 17:43 33.87363 -128.92746 38025 ft 432 kts 269°
2026-04-20 17:44 33.87726 -128.99982 38026 ft 431 kts 268°
2026-04-20 17:44 33.88080 -129.07162 38033 ft 430 kts 268°
2026-04-20 17:45 33.88426 -129.14311 38025 ft 429 kts 268°
2026-04-20 17:45 33.88769 -129.21467 38030 ft 429 kts 268°
2026-04-20 17:46 33.89106 -129.28606 38025 ft 429 kts 268°
2026-04-20 17:46 33.89442 -129.35785 38026 ft 427 kts 268°
2026-04-20 17:47 33.89770 -129.42899 38013 ft 427 kts 267°
2026-04-20 17:47 33.90041 -129.48842 38008 ft 426 kts 267°
2026-04-20 17:48 33.90360 -129.55923 38008 ft 425 kts 267°
2026-04-20 17:48 33.90676 -129.63016 38008 ft 424 kts 267°
2026-04-20 17:49 33.90988 -129.70092 38008 ft 423 kts 267°
2026-04-20 17:49 33.91295 -129.77176 38008 ft 422 kts 266°
2026-04-20 17:50 33.91570 -129.84229 38008 ft 423 kts 266°
2026-04-20 17:50 33.91852 -129.91298 38008 ft 423 kts 266°
2026-04-20 17:51 33.92140 -129.98322 38008 ft 422 kts 266°
2026-04-20 17:51 33.92429 -130.05371 38008 ft 423 kts 266°
2026-04-20 17:52 33.92715 -130.12430 38009 ft 422 kts 266°
2026-04-20 17:52 33.92998 -130.19507 38007 ft 422 kts 266°
2026-04-20 17:53 33.93275 -130.26563 38008 ft 421 kts 266°
2026-04-20 17:53 33.93548 -130.33611 38008 ft 421 kts 266°
2026-04-20 17:54 33.93815 -130.40637 38008 ft 422 kts 266°
2026-04-20 17:54 33.94082 -130.47706 38008 ft 422 kts 266°
2026-04-20 17:55 33.94343 -130.54715 38008 ft 421 kts 266°
2026-04-20 17:55 33.94599 -130.61757 38008 ft 421 kts 266°
2026-04-20 17:56 33.94852 -130.68818 38008 ft 420 kts 266°
2026-04-20 17:56 33.95097 -130.75810 38008 ft 420 kts 267°
2026-04-20 17:57 33.95322 -130.82840 38008 ft 418 kts 267°
2026-04-20 17:57 33.95542 -130.89850 38008 ft 417 kts 267°
2026-04-20 17:58 33.95770 -130.96807 38009 ft 417 kts 267°
2026-04-20 17:58 33.95997 -131.03794 38007 ft 417 kts 267°
2026-04-20 17:59 33.96224 -131.10744 38008 ft 416 kts 267°
2026-04-20 17:59 33.96446 -131.17716 38008 ft 415 kts 267°
2026-04-20 18:00 33.96665 -131.24666 38008 ft 415 kts 267°
2026-04-20 18:00 33.96879 -131.31616 38010 ft 414 kts 267°
2026-04-20 18:01 33.97087 -131.38544 38008 ft 414 kts 267°
2026-04-20 18:01 33.97292 -131.45473 38008 ft 413 kts 267°
2026-04-20 18:02 33.97492 -131.52351 38009 ft 413 kts 267°
2026-04-20 18:02 33.97688 -131.59261 38008 ft 411 kts 269°
2026-04-20 18:03 33.97879 -131.66118 38008 ft 411 kts 269°
2026-04-20 18:03 33.98069 -131.73015 38008 ft 411 kts 269°
2026-04-20 18:04 33.98247 -131.79905 38008 ft 411 kts 269°
2026-04-20 18:04 33.98402 -131.86756 38008 ft 411 kts 269°
2026-04-20 18:05 33.98653 -131.97111 38008 ft 411 kts 269°
2026-04-20 18:05 33.98823 -132.03997 38008 ft 411 kts 269°
2026-04-20 18:06 33.98991 -132.10856 38008 ft 411 kts 269°
2026-04-20 18:06 33.99155 -132.17762 38008 ft 411 kts 269°
2026-04-20 18:07 33.99311 -132.24613 38017 ft 411 kts 269°
2026-04-20 18:07 33.99469 -132.31507 38017 ft 411 kts 269°
2026-04-20 18:08 33.99621 -132.38404 38017 ft 411 kts 269°
2026-04-20 18:08 33.99768 -132.45250 38017 ft 410 kts 269°
2026-04-20 18:09 33.99912 -132.52122 38017 ft 410 kts 269°
2026-04-20 18:09 34.00051 -132.58976 38016 ft 409 kts 269°
2026-04-20 18:10 34.00187 -132.65849 38017 ft 411 kts 269°
2026-04-20 18:10 34.00320 -132.72762 38017 ft 413 kts 269°
2026-04-20 18:11 34.00441 -132.79649 38017 ft 414 kts 269°
2026-04-20 18:11 34.00541 -132.86603 38017 ft 414 kts 269°
2026-04-20 18:12 34.00652 -132.93548 38017 ft 414 kts 270°
2026-04-20 18:12 34.00768 -133.00448 38017 ft 413 kts 270°
2026-04-20 18:13 34.00882 -133.07382 38017 ft 413 kts 270°
2026-04-20 18:13 34.00992 -133.14297 38017 ft 412 kts 270°
2026-04-20 18:14 34.01099 -133.21164 38017 ft 411 kts 270°
2026-04-20 18:14 34.01198 -133.28050 38019 ft 410 kts 270°
2026-04-20 18:15 34.01295 -133.34889 38018 ft 409 kts 270°
2026-04-20 18:15 34.01386 -133.41735 38017 ft 408 kts 270°
2026-04-20 18:16 34.01476 -133.48569 38017 ft 407 kts 271°
2026-04-20 18:16 34.01563 -133.55387 38017 ft 406 kts 270°
2026-04-20 18:17 34.01645 -133.62189 38017 ft 406 kts 271°
2026-04-20 18:17 34.01721 -133.68948 38017 ft 405 kts 271°
2026-04-20 18:18 34.01797 -133.75743 38017 ft 404 kts 271°
2026-04-20 18:18 34.01852 -133.82461 38017 ft 403 kts 270°
2026-04-20 18:19 34.01897 -133.89241 38017 ft 402 kts 271°
2026-04-20 18:19 34.01949 -133.95955 38018 ft 402 kts 271°
2026-04-20 18:20 34.02006 -134.02704 38017 ft 402 kts 271°
2026-04-20 18:20 34.02061 -134.09410 38017 ft 402 kts 271°
2026-04-20 18:21 34.02113 -134.16168 38017 ft 402 kts 271°
2026-04-20 18:21 34.02160 -134.22913 38017 ft 402 kts 271°
2026-04-20 18:22 34.02089 -134.29665 38016 ft 403 kts 265°
2026-04-20 18:22 34.00669 -134.36179 38009 ft 409 kts 251°
2026-04-20 18:23 33.98276 -134.42453 38009 ft 411 kts 249°
2026-04-20 18:23 33.95853 -134.48692 38008 ft 410 kts 250°
2026-04-20 18:24 33.93519 -134.54911 38008 ft 408 kts 251°
2026-04-20 18:24 33.91206 -134.61172 38008 ft 409 kts 251°
2026-04-20 18:25 33.88910 -134.67399 38008 ft 409 kts 251°
2026-04-20 18:25 33.86595 -134.73659 38008 ft 409 kts 251°
2026-04-20 18:26 33.84275 -134.79928 38008 ft 409 kts 251°
2026-04-20 18:26 33.81962 -134.86166 38008 ft 409 kts 251°
2026-04-20 18:27 33.79638 -134.92413 37991 ft 409 kts 251°
2026-04-20 18:27 33.77323 -134.98631 37989 ft 409 kts 251°
2026-04-20 18:28 33.74990 -135.04884 37990 ft 409 kts 252°
2026-04-20 18:28 33.72666 -135.11100 37990 ft 409 kts 252°
2026-04-20 18:29 33.70320 -135.17362 37990 ft 410 kts 252°
2026-04-20 18:29 33.67983 -135.23590 37990 ft 411 kts 252°
2026-04-20 18:30 33.65614 -135.29836 37989 ft 411 kts 252°
2026-04-20 18:30 33.63251 -135.36052 37990 ft 411 kts 252°
2026-04-20 18:31 33.60884 -135.42308 37990 ft 411 kts 252°
2026-04-20 18:31 33.58538 -135.48520 37984 ft 411 kts 252°
2026-04-20 18:32 33.56170 -135.54770 37980 ft 411 kts 252°
2026-04-20 18:32 33.53795 -135.61025 37980 ft 411 kts 252°
2026-04-20 18:33 33.51431 -135.67242 37981 ft 412 kts 252°
2026-04-20 18:33 33.49048 -135.73497 37980 ft 412 kts 252°
2026-04-20 18:34 33.46673 -135.79716 37980 ft 412 kts 252°
2026-04-20 18:34 33.44287 -135.85947 37981 ft 411 kts 252°
2026-04-20 18:35 33.41911 -135.92151 37980 ft 412 kts 252°
2026-04-20 18:35 33.39520 -135.98385 37990 ft 412 kts 252°
2026-04-20 18:36 33.37125 -136.04611 37989 ft 411 kts 252°
2026-04-20 18:36 33.34729 -136.10832 37990 ft 412 kts 252°
2026-04-20 18:37 33.32332 -136.17025 37989 ft 412 kts 252°
2026-04-20 18:37 33.29905 -136.23234 37990 ft 411 kts 252°
2026-04-20 18:38 33.27492 -136.29428 37990 ft 410 kts 252°
2026-04-20 18:38 33.25103 -136.35579 37990 ft 410 kts 252°
2026-04-20 18:39 33.22696 -136.41771 37990 ft 411 kts 252°
2026-04-20 18:39 33.20676 -136.46959 37989 ft 411 kts 252°
2026-04-20 18:40 33.18271 -136.53125 37989 ft 411 kts 252°
2026-04-20 18:40 33.15845 -136.59326 37990 ft 411 kts 252°
2026-04-20 18:41 33.13441 -136.65462 37989 ft 411 kts 252°
2026-04-20 18:41 33.11021 -136.71642 37995 ft 410 kts 252°
2026-04-20 18:42 33.08613 -136.77772 37999 ft 410 kts 252°
2026-04-20 18:42 33.06182 -136.83938 37999 ft 410 kts 252°
2026-04-20 18:43 33.03754 -136.90092 37999 ft 410 kts 252°
2026-04-20 18:43 33.01316 -136.96263 37999 ft 410 kts 252°
2026-04-20 18:44 32.98897 -137.02378 37999 ft 410 kts 252°
2026-04-20 18:44 32.96448 -137.08522 37999 ft 410 kts 252°
2026-04-20 18:45 32.93988 -137.14656 37999 ft 410 kts 252°
2026-04-20 18:45 32.91537 -137.20789 37999 ft 410 kts 252°
2026-04-20 18:46 32.89104 -137.26890 37999 ft 410 kts 252°
2026-04-20 18:46 32.86656 -137.33023 37999 ft 410 kts 252°
2026-04-20 18:47 32.84202 -137.39157 37999 ft 410 kts 251°
2026-04-20 18:47 32.81759 -137.45249 37999 ft 410 kts 251°
2026-04-20 18:48 32.79303 -137.51365 38000 ft 411 kts 251°
2026-04-20 18:48 32.76832 -137.57506 37999 ft 411 kts 251°
2026-04-20 18:49 32.74356 -137.63654 37999 ft 411 kts 251°
2026-04-20 18:49 32.71899 -137.69740 37999 ft 411 kts 251°
2026-04-20 18:50 32.69420 -137.75869 37999 ft 411 kts 251°
2026-04-20 18:50 32.66933 -137.82014 37999 ft 412 kts 251°
2026-04-20 18:51 32.64459 -137.88109 37999 ft 412 kts 251°
2026-04-20 18:51 32.61963 -137.94247 37999 ft 413 kts 251°
2026-04-20 18:52 32.59442 -138.00383 37999 ft 413 kts 251°
2026-04-20 18:52 32.56940 -138.06475 37998 ft 414 kts 251°
2026-04-20 18:53 32.54419 -138.12631 37999 ft 414 kts 251°
2026-04-20 18:53 32.51899 -138.18786 37999 ft 415 kts 250°
2026-04-20 18:54 32.49390 -138.24906 37999 ft 415 kts 250°
2026-04-20 18:54 32.46855 -138.31073 37999 ft 415 kts 251°
2026-04-20 18:55 32.44324 -138.37218 37999 ft 415 kts 250°
2026-04-20 18:55 32.41802 -138.43338 37998 ft 415 kts 250°
2026-04-20 18:56 32.39257 -138.49498 37999 ft 416 kts 250°
2026-04-20 18:56 32.36727 -138.55618 37999 ft 417 kts 250°
2026-04-20 18:57 32.34169 -138.61791 37999 ft 417 kts 250°
2026-04-20 18:57 32.31609 -138.67959 37999 ft 417 kts 250°
2026-04-20 18:58 32.29068 -138.74067 37999 ft 417 kts 250°
2026-04-20 18:58 32.26500 -138.80232 37999 ft 418 kts 250°
2026-04-20 18:59 32.23908 -138.86411 38007 ft 419 kts 250°
2026-04-20 18:59 32.21319 -138.92552 38008 ft 419 kts 250°
2026-04-20 19:00 32.18729 -138.98716 38008 ft 420 kts 250°
2026-04-20 19:00 32.16129 -139.04912 38008 ft 421 kts 250°
2026-04-20 19:01 32.13540 -139.11072 38008 ft 421 kts 250°
2026-04-20 19:01 32.10929 -139.17274 38010 ft 421 kts 250°
2026-04-20 19:02 32.08317 -139.23469 38008 ft 422 kts 250°
2026-04-20 19:02 32.05711 -139.29640 38009 ft 423 kts 250°
2026-04-20 19:03 32.03072 -139.35876 38008 ft 424 kts 250°
2026-04-20 19:03 32.00453 -139.42056 38008 ft 424 kts 250°
2026-04-20 19:04 31.97807 -139.48286 38008 ft 425 kts 249°
2026-04-20 19:04 31.95158 -139.54517 38008 ft 425 kts 249°
2026-04-20 19:05 31.92514 -139.60721 38008 ft 426 kts 249°
2026-04-20 19:05 31.89853 -139.66961 38008 ft 426 kts 249°
2026-04-20 19:06 31.87168 -139.73214 38008 ft 426 kts 249°
2026-04-20 19:06 31.84494 -139.79397 38008 ft 427 kts 249°
2026-04-20 19:07 31.81807 -139.85629 38008 ft 427 kts 249°
2026-04-20 19:07 31.79125 -139.91869 38008 ft 427 kts 249°
2026-04-20 19:08 31.75108 -140.01196 38008 ft 427 kts 249°
2026-04-20 19:09 31.72409 -140.07450 38008 ft 427 kts 249°
2026-04-20 19:09 31.69717 -140.13680 38007 ft 427 kts 249°
2026-04-20 19:10 31.67033 -140.19873 38010 ft 427 kts 249°
2026-04-20 19:10 31.64332 -140.26097 38008 ft 427 kts 249°
2026-04-20 19:11 31.61631 -140.32316 38010 ft 427 kts 249°
2026-04-20 19:11 31.58945 -140.38487 38008 ft 428 kts 249°
2026-04-20 19:12 31.56232 -140.44707 38008 ft 428 kts 249°
2026-04-20 19:12 31.53521 -140.50912 38008 ft 426 kts 249°
2026-04-20 19:13 31.50811 -140.57106 38008 ft 426 kts 249°
2026-04-20 19:13 31.48103 -140.63240 38008 ft 426 kts 249°
2026-04-20 19:14 31.45372 -140.69423 38008 ft 426 kts 249°
2026-04-20 19:14 31.42651 -140.75599 38008 ft 427 kts 249°
2026-04-20 19:15 31.39925 -140.81784 38008 ft 427 kts 249°
2026-04-20 19:15 31.37216 -140.87922 38008 ft 427 kts 249°
2026-04-20 19:16 31.34479 -140.94115 38008 ft 427 kts 248°
2026-04-20 19:16 31.31758 -141.00260 38009 ft 427 kts 248°
2026-04-20 19:17 31.29015 -141.06448 38016 ft 427 kts 248°
2026-04-20 19:17 31.26296 -141.12570 38018 ft 426 kts 248°
2026-04-20 19:18 31.23559 -141.18719 38017 ft 427 kts 248°
2026-04-20 19:18 31.20810 -141.24889 38017 ft 427 kts 248°
2026-04-20 19:19 31.18081 -141.31001 38020 ft 427 kts 248°
2026-04-20 19:19 31.15328 -141.37158 38017 ft 427 kts 248°
2026-04-20 19:20 31.12572 -141.43307 38017 ft 428 kts 248°
2026-04-20 19:20 31.09788 -141.49468 38017 ft 428 kts 248°
2026-04-20 19:21 31.07029 -141.55575 38017 ft 428 kts 248°
2026-04-20 19:21 31.04253 -141.61731 38017 ft 428 kts 248°
2026-04-20 19:22 31.01495 -141.67845 38033 ft 428 kts 248°
2026-04-20 19:22 30.98713 -141.74002 38035 ft 428 kts 248°
2026-04-20 19:23 30.95931 -141.80158 38036 ft 428 kts 248°
2026-04-20 19:23 30.93162 -141.86270 38036 ft 429 kts 248°
2026-04-20 19:24 30.90377 -141.92405 38036 ft 428 kts 248°
2026-04-20 19:24 30.87585 -141.98545 38036 ft 428 kts 247°
2026-04-20 19:25 30.84790 -142.04686 38036 ft 429 kts 247°
2026-04-20 19:25 30.81986 -142.10842 38036 ft 430 kts 247°
2026-04-20 19:26 30.79193 -142.16954 38036 ft 431 kts 247°
2026-04-20 19:26 30.76379 -142.23097 38036 ft 430 kts 247°
2026-04-20 19:27 30.73564 -142.29241 38036 ft 430 kts 247°
2026-04-20 19:27 30.70734 -142.35364 38036 ft 430 kts 246°
2026-04-20 19:28 30.67896 -142.41497 38036 ft 431 kts 246°
2026-04-20 19:28 30.65081 -142.47601 38036 ft 430 kts 246°
2026-04-20 19:29 30.62249 -142.53740 38036 ft 430 kts 246°
2026-04-20 19:29 30.59436 -142.59831 38044 ft 430 kts 246°
2026-04-20 19:30 30.56602 -142.65960 38045 ft 430 kts 246°
2026-04-20 19:30 30.54241 -142.71051 38045 ft 431 kts 246°
2026-04-20 19:31 30.51395 -142.77183 38045 ft 431 kts 246°
2026-04-20 19:31 30.48572 -142.83257 38045 ft 431 kts 246°
2026-04-20 19:32 30.45723 -142.89380 38045 ft 431 kts 246°
2026-04-20 19:32 30.42872 -142.95497 38046 ft 431 kts 246°
2026-04-20 19:33 30.40031 -143.01579 38045 ft 431 kts 246°
2026-04-20 19:33 30.37167 -143.07699 38045 ft 431 kts 246°
2026-04-20 19:34 30.34325 -143.13765 38045 ft 431 kts 245°
2026-04-20 19:34 30.31433 -143.19889 38045 ft 431 kts 245°
2026-04-20 19:35 30.28567 -143.25954 38045 ft 431 kts 245°
2026-04-20 19:35 30.25683 -143.32069 38045 ft 432 kts 245°
2026-04-20 19:36 30.22811 -143.38166 38045 ft 431 kts 245°
2026-04-20 19:36 30.19935 -143.44253 38045 ft 432 kts 245°
2026-04-20 19:37 30.17059 -143.50330 38045 ft 432 kts 245°
2026-04-20 19:37 30.14181 -143.56401 38045 ft 432 kts 245°
2026-04-20 19:38 30.11291 -143.62494 38045 ft 432 kts 245°
2026-04-20 19:38 30.08397 -143.68583 38045 ft 433 kts 245°
2026-04-20 19:39 30.05510 -143.74649 38045 ft 432 kts 245°
2026-04-20 19:39 30.02610 -143.80734 38045 ft 432 kts 244°
2026-04-20 19:40 29.99699 -143.86830 38045 ft 434 kts 244°
2026-04-20 19:40 29.96787 -143.92918 38045 ft 433 kts 244°
2026-04-20 19:41 29.93897 -143.98962 38045 ft 433 kts 244°
2026-04-20 19:41 29.90964 -144.05033 38045 ft 433 kts 244°
2026-04-20 19:42 29.88032 -144.11101 38045 ft 433 kts 244°
2026-04-20 19:42 29.85127 -144.17138 38045 ft 433 kts 244°
2026-04-20 19:43 29.82695 -144.22184 38045 ft 433 kts 244°
2026-04-20 19:43 29.79287 -144.29237 38045 ft 433 kts 244°
2026-04-20 19:44 29.76358 -144.35294 38045 ft 433 kts 244°
2026-04-20 19:44 29.73427 -144.41351 38053 ft 432 kts 244°
2026-04-20 19:45 29.70510 -144.47370 38054 ft 432 kts 244°
2026-04-20 19:45 29.67569 -144.53428 38054 ft 432 kts 244°
2026-04-20 19:46 29.64649 -144.59432 38054 ft 432 kts 244°
2026-04-20 19:46 29.61709 -144.65467 38054 ft 432 kts 244°
2026-04-20 19:47 29.58759 -144.71508 38054 ft 433 kts 244°
2026-04-20 19:47 29.55824 -144.77522 38054 ft 433 kts 243°
2026-04-20 19:48 29.52875 -144.83548 38054 ft 432 kts 243°
2026-04-20 19:48 29.49922 -144.89533 38054 ft 432 kts 243°
2026-04-20 19:49 29.46948 -144.95561 38054 ft 432 kts 243°
2026-04-20 19:49 29.44003 -145.01548 38054 ft 432 kts 243°
2026-04-20 19:50 29.41040 -145.07570 38054 ft 433 kts 243°
2026-04-20 19:50 29.38092 -145.13553 38055 ft 433 kts 243°
2026-04-20 19:51 29.35116 -145.19579 38054 ft 433 kts 243°
2026-04-20 19:51 29.32148 -145.25583 38054 ft 433 kts 243°
2026-04-20 19:52 29.29172 -145.31590 38054 ft 432 kts 243°
2026-04-20 19:52 29.26220 -145.37546 38054 ft 433 kts 243°
2026-04-20 19:53 29.23239 -145.43545 38054 ft 433 kts 243°
2026-04-20 19:53 29.20274 -145.49504 38054 ft 432 kts 243°
2026-04-20 19:54 29.17284 -145.55507 38054 ft 432 kts 243°
2026-04-20 19:54 29.14317 -145.61455 38054 ft 432 kts 243°
2026-04-20 19:55 29.11326 -145.67433 38055 ft 432 kts 242°
2026-04-20 19:55 29.08322 -145.73394 38054 ft 431 kts 242°
2026-04-20 19:56 29.05347 -145.79310 38054 ft 431 kts 242°
2026-04-20 19:56 29.02355 -145.85265 38054 ft 430 kts 242°
2026-04-20 19:57 28.99369 -145.91208 38054 ft 430 kts 242°
2026-04-20 19:57 28.96402 -145.97104 38054 ft 430 kts 242°
2026-04-20 19:58 28.93416 -146.03030 38054 ft 430 kts 242°
2026-04-20 19:58 28.90414 -146.08975 38055 ft 431 kts 242°
2026-04-20 19:59 28.87419 -146.14902 38054 ft 431 kts 242°
2026-04-20 19:59 28.84441 -146.20787 38054 ft 431 kts 242°
2026-04-20 20:00 28.81439 -146.26708 38062 ft 430 kts 242°
2026-04-20 20:00 28.78458 -146.32581 38063 ft 429 kts 242°
2026-04-20 20:01 28.75461 -146.38477 38063 ft 429 kts 242°
2026-04-20 20:01 28.72453 -146.44382 38065 ft 429 kts 242°
2026-04-20 20:02 28.69458 -146.50243 38063 ft 430 kts 242°
2026-04-20 20:02 28.66432 -146.56128 38063 ft 429 kts 241°
2026-04-20 20:03 28.63420 -146.62000 38063 ft 429 kts 242°
2026-04-20 20:03 28.60424 -146.67844 38063 ft 429 kts 242°
2026-04-20 20:04 28.57410 -146.73724 38063 ft 429 kts 242°
2026-04-20 20:04 28.54393 -146.79601 38063 ft 429 kts 241°
2026-04-20 20:05 28.51399 -146.85425 38063 ft 430 kts 241°
2026-04-20 20:05 28.48372 -146.91304 38068 ft 430 kts 241°
2026-04-20 20:06 28.45342 -146.97181 38063 ft 430 kts 241°
2026-04-20 20:06 28.42320 -147.03036 38063 ft 430 kts 241°
2026-04-20 20:07 28.39259 -147.08893 38062 ft 431 kts 238°
2026-04-20 20:07 28.35219 -147.13893 38064 ft 438 kts 221°
2026-04-20 20:08 28.29837 -147.17248 38062 ft 448 kts 204°
2026-04-20 20:08 28.23721 -147.18794 38063 ft 451 kts 199°
2026-04-20 20:09 28.17984 -147.21417 38063 ft 441 kts 216°
2026-04-20 20:09 28.13342 -147.25839 38063 ft 434 kts 232°
2026-04-20 20:10 28.10218 -147.31555 38063 ft 429 kts 249°
2026-04-20 20:10 28.08616 -147.38071 38064 ft 429 kts 258°
2026-04-20 20:11 28.07479 -147.44692 38063 ft 429 kts 259°
2026-04-20 20:11 28.06381 -147.51345 38063 ft 430 kts 259°
2026-04-20 20:12 28.05033 -147.57934 38063 ft 429 kts 251°
2026-04-20 20:12 28.02682 -147.64153 38063 ft 430 kts 243°
2026-04-20 20:13 27.98248 -147.72969 38063 ft 431 kts 240°
2026-04-20 20:13 27.95183 -147.78791 38055 ft 430 kts 240°
2026-04-20 20:14 27.92146 -147.84576 38054 ft 430 kts 240°
2026-04-20 20:14 27.89092 -147.90408 38054 ft 431 kts 240°
2026-04-20 20:15 27.86034 -147.96248 38054 ft 431 kts 240°
2026-04-20 20:15 27.82963 -148.02074 38054 ft 431 kts 240°
2026-04-20 20:16 27.79907 -148.07859 38054 ft 431 kts 240°
2026-04-20 20:16 27.76836 -148.13687 38054 ft 431 kts 240°
2026-04-20 20:17 27.73787 -148.19477 38054 ft 431 kts 240°
2026-04-20 20:17 27.70723 -148.25284 38054 ft 430 kts 240°
2026-04-20 20:18 27.67653 -148.31101 38054 ft 430 kts 240°
2026-04-20 20:18 27.64602 -148.36870 38054 ft 430 kts 240°
2026-04-20 20:19 27.61532 -148.42666 38055 ft 430 kts 240°
2026-04-20 20:19 27.58463 -148.48453 38054 ft 429 kts 240°
2026-04-20 20:20 27.55411 -148.54199 38062 ft 429 kts 240°
2026-04-20 20:20 27.52342 -148.59972 38066 ft 428 kts 240°
2026-04-20 20:21 27.49287 -148.65711 38063 ft 428 kts 240°
2026-04-20 20:21 27.46212 -148.71478 38055 ft 429 kts 240°
2026-04-20 20:22 27.43657 -148.76266 38055 ft 429 kts 240°
2026-04-20 20:22 27.40067 -148.82957 38055 ft 429 kts 240°
2026-04-20 20:23 27.37490 -148.87744 38054 ft 429 kts 240°
2026-04-20 20:23 27.34405 -148.93488 38054 ft 429 kts 240°
2026-04-20 20:24 27.31319 -148.99238 38054 ft 429 kts 240°
2026-04-20 20:24 27.28247 -149.04955 38054 ft 429 kts 240°
2026-04-20 20:25 27.25144 -149.10723 38054 ft 429 kts 240°
2026-04-20 20:25 27.22074 -149.16423 38054 ft 429 kts 240°
2026-04-20 20:26 27.18979 -149.22162 38054 ft 429 kts 240°
2026-04-20 20:26 27.15882 -149.27895 38054 ft 429 kts 240°
2026-04-20 20:27 27.12779 -149.33631 38062 ft 429 kts 240°
2026-04-20 20:27 27.09687 -149.39341 38063 ft 429 kts 240°
2026-04-20 20:28 27.06582 -149.45066 38063 ft 429 kts 240°
2026-04-20 20:28 27.03486 -149.50769 38063 ft 429 kts 240°
2026-04-20 20:29 27.00374 -149.56494 38063 ft 429 kts 240°
2026-04-20 20:29 26.97259 -149.62197 38063 ft 428 kts 240°
2026-04-20 20:30 26.94155 -149.67858 38063 ft 428 kts 240°
2026-04-20 20:30 26.91044 -149.73543 38063 ft 427 kts 240°
2026-04-20 20:31 26.87939 -149.79225 38066 ft 427 kts 240°
2026-04-20 20:31 26.84841 -149.84888 38063 ft 426 kts 240°
2026-04-20 20:32 26.81759 -149.90514 38063 ft 425 kts 240°
2026-04-20 20:32 26.78662 -149.96159 38063 ft 424 kts 240°
2026-04-20 20:33 26.75569 -150.01791 38062 ft 424 kts 240°
2026-04-20 20:33 26.72491 -150.07391 38063 ft 426 kts 240°
2026-04-20 20:34 26.69368 -150.13059 38064 ft 428 kts 240°
2026-04-20 20:34 26.66247 -150.18715 38063 ft 425 kts 240°
2026-04-20 20:35 26.63151 -150.24325 38064 ft 425 kts 240°
2026-04-20 20:35 26.60061 -150.29916 38063 ft 425 kts 240°
2026-04-20 20:36 26.56949 -150.35539 38063 ft 425 kts 240°
2026-04-20 20:36 26.53848 -150.41121 38063 ft 424 kts 239°
2026-04-20 20:37 26.50727 -150.46709 38063 ft 423 kts 239°
2026-04-20 20:37 26.47607 -150.52309 38063 ft 424 kts 240°
2026-04-20 20:38 26.44511 -150.57876 38063 ft 424 kts 240°
2026-04-20 20:38 26.41395 -150.63474 38068 ft 425 kts 240°
2026-04-20 20:39 26.38271 -150.69077 38067 ft 424 kts 240°
2026-04-20 20:39 26.35160 -150.74646 38063 ft 426 kts 239°
2026-04-20 20:40 26.32026 -150.80248 38063 ft 426 kts 239°
2026-04-20 20:40 26.28879 -150.85874 38063 ft 426 kts 239°
2026-04-20 20:41 26.25758 -150.91448 38063 ft 426 kts 239°
2026-04-20 20:41 26.22606 -150.97065 38073 ft 426 kts 239°
2026-04-20 20:42 26.19455 -151.02675 38075 ft 426 kts 239°
2026-04-20 20:42 26.16323 -151.08242 38074 ft 426 kts 239°
2026-04-20 20:43 26.13162 -151.13854 38075 ft 427 kts 239°
2026-04-20 20:43 26.09989 -151.19469 38072 ft 428 kts 239°
2026-04-20 20:44 26.06826 -151.25038 38072 ft 427 kts 239°
2026-04-20 20:44 26.03655 -151.30633 38073 ft 427 kts 239°
2026-04-20 20:45 26.00482 -151.36231 38072 ft 428 kts 239°
2026-04-20 20:45 25.97311 -151.41833 38075 ft 426 kts 239°
2026-04-20 20:46 25.94186 -151.47341 38072 ft 423 kts 239°
2026-04-20 20:46 25.91034 -151.52890 38072 ft 423 kts 239°
2026-04-20 20:47 25.87907 -151.58395 38072 ft 424 kts 239°
2026-04-20 20:47 25.84747 -151.63946 38072 ft 426 kts 239°
2026-04-20 20:48 25.81572 -151.69516 38072 ft 426 kts 239°
2026-04-20 20:48 25.78410 -151.75051 38072 ft 426 kts 239°
2026-04-20 20:49 25.75221 -151.80623 38076 ft 427 kts 239°
2026-04-20 20:49 25.72058 -151.86149 38072 ft 426 kts 239°
2026-04-20 20:50 25.68868 -151.91716 38072 ft 427 kts 239°
2026-04-20 20:50 25.65662 -151.97237 38072 ft 427 kts 238°
2026-04-20 20:51 25.62421 -152.02752 38071 ft 426 kts 238°
2026-04-20 20:51 25.59177 -152.08276 38072 ft 427 kts 238°
2026-04-20 20:52 25.55962 -152.13759 38078 ft 426 kts 239°
2026-04-20 20:52 25.52736 -152.19260 38078 ft 425 kts 239°
2026-04-20 20:53 25.49522 -152.24726 38071 ft 425 kts 238°
2026-04-20 20:53 25.46294 -152.30207 38072 ft 424 kts 238°
2026-04-20 20:54 25.43073 -152.35673 38074 ft 423 kts 238°
2026-04-20 20:54 25.39870 -152.41101 38073 ft 424 kts 238°
2026-04-20 20:55 25.36648 -152.46560 38072 ft 422 kts 238°
2026-04-20 20:55 25.33431 -152.52002 38072 ft 422 kts 238°
2026-04-20 20:56 25.30225 -152.57416 38072 ft 422 kts 238°
2026-04-20 20:56 25.27030 -152.62808 38072 ft 422 kts 238°
2026-04-20 20:57 25.23810 -152.68237 38072 ft 422 kts 238°
2026-04-20 20:57 25.20584 -152.73651 38072 ft 420 kts 238°
2026-04-20 20:58 25.17380 -152.79014 38072 ft 420 kts 238°
2026-04-20 20:58 25.14158 -152.84418 38072 ft 420 kts 238°
2026-04-20 20:59 25.10949 -152.89800 38072 ft 419 kts 238°
2026-04-20 20:59 25.07758 -152.95148 38072 ft 420 kts 238°
2026-04-20 21:00 25.04537 -153.00538 38072 ft 420 kts 238°
2026-04-20 21:00 25.01325 -153.05910 38072 ft 419 kts 238°
2026-04-20 21:01 24.98129 -153.11249 38072 ft 419 kts 238°
2026-04-20 21:01 24.94914 -153.16611 38072 ft 418 kts 238°
2026-04-20 21:02 24.91686 -153.21993 38065 ft 422 kts 238°
2026-04-20 21:02 24.88443 -153.27392 38064 ft 426 kts 238°
2026-04-20 21:03 24.85162 -153.32846 38063 ft 426 kts 238°
2026-04-20 21:03 24.81891 -153.38280 38070 ft 424 kts 238°
2026-04-20 21:04 24.78637 -153.43677 38072 ft 425 kts 238°
2026-04-20 21:04 24.75363 -153.49092 38072 ft 425 kts 238°
2026-04-20 21:05 24.72096 -153.54471 38071 ft 424 kts 237°
2026-04-20 21:05 24.68819 -153.59873 38072 ft 423 kts 238°
2026-04-20 21:06 24.65579 -153.65231 38072 ft 423 kts 238°
2026-04-20 21:06 24.62324 -153.70604 38072 ft 421 kts 237°
2026-04-20 21:07 24.59086 -153.75936 38072 ft 421 kts 237°
2026-04-20 21:07 24.55817 -153.81313 38072 ft 422 kts 237°
2026-04-20 21:08 24.52575 -153.86646 38071 ft 421 kts 237°
2026-04-20 21:08 24.49319 -153.91992 38074 ft 420 kts 237°
2026-04-20 21:09 24.46069 -153.97330 38072 ft 420 kts 237°
2026-04-20 21:09 24.42841 -154.02629 38072 ft 419 kts 237°
2026-04-20 21:10 24.39579 -154.07962 38072 ft 420 kts 237°
2026-04-20 21:10 24.36344 -154.13247 38074 ft 419 kts 237°
2026-04-20 21:11 24.33092 -154.18559 38075 ft 419 kts 237°
2026-04-20 21:11 24.29850 -154.23845 38072 ft 419 kts 237°
2026-04-20 21:12 24.26579 -154.29152 38073 ft 419 kts 237°
2026-04-20 21:12 24.23310 -154.34455 38072 ft 419 kts 237°
2026-04-20 21:13 24.20040 -154.39766 38072 ft 420 kts 237°
2026-04-20 21:13 24.16791 -154.45044 38071 ft 419 kts 237°
2026-04-20 21:14 24.13521 -154.50357 38072 ft 421 kts 237°
2026-04-20 21:14 24.10791 -154.54781 38074 ft 420 kts 237°
2026-04-20 21:15 24.06973 -154.60968 38076 ft 422 kts 237°
2026-04-20 21:15 24.04240 -154.65390 38073 ft 422 kts 237°
2026-04-20 21:16 24.00937 -154.70729 38072 ft 423 kts 237°
2026-04-20 21:16 23.97627 -154.76071 38073 ft 422 kts 237°
2026-04-20 21:17 23.94356 -154.81342 38073 ft 421 kts 237°
2026-04-20 21:17 23.91061 -154.86652 38072 ft 421 kts 237°
2026-04-20 21:18 23.87781 -154.91931 38077 ft 422 kts 237°
2026-04-20 21:18 23.84478 -154.97244 38071 ft 422 kts 237°
2026-04-20 21:19 23.81160 -155.02552 38075 ft 423 kts 236°
2026-04-20 21:20 23.76191 -155.10491 38076 ft 424 kts 236°
2026-04-20 21:20 23.72864 -155.15818 38076 ft 425 kts 236°
2026-04-20 21:21 23.69548 -155.21127 38072 ft 425 kts 236°
2026-04-20 21:21 23.66198 -155.26483 38072 ft 426 kts 236°
2026-04-20 21:22 23.62849 -155.31832 38075 ft 427 kts 236°
2026-04-20 21:22 23.59519 -155.37141 38073 ft 427 kts 236°
2026-04-20 21:23 23.56169 -155.42474 38072 ft 427 kts 236°
2026-04-20 21:23 23.52794 -155.47832 38073 ft 428 kts 236°
2026-04-20 21:24 23.49386 -155.53120 38078 ft 428 kts 236°
2026-04-20 21:24 23.45944 -155.58434 38091 ft 427 kts 236°
2026-04-20 21:25 23.42531 -155.63704 38164 ft 428 kts 236°
2026-04-20 21:25 23.39083 -155.69027 38173 ft 428 kts 236°
2026-04-20 21:26 23.35670 -155.74295 38173 ft 427 kts 236°
2026-04-20 21:26 23.32232 -155.79595 38173 ft 428 kts 236°
2026-04-20 21:27 23.28817 -155.84855 38173 ft 427 kts 236°
2026-04-20 21:27 23.25388 -155.90130 38172 ft 427 kts 236°
2026-04-20 21:28 23.21963 -155.95390 38163 ft 426 kts 236°
2026-04-20 21:28 23.18540 -156.00645 38182 ft 425 kts 236°
2026-04-20 21:29 23.15132 -156.05874 38185 ft 427 kts 236°
2026-04-20 21:29 23.11687 -156.11153 38116 ft 427 kts 236°
2026-04-20 21:30 23.08263 -156.16391 38094 ft 426 kts 236°
2026-04-20 21:30 23.04821 -156.21652 38088 ft 426 kts 236°
2026-04-20 21:31 23.01399 -156.26850 38093 ft 424 kts 236°
2026-04-20 21:31 22.97982 -156.32046 38089 ft 424 kts 236°
2026-04-20 21:31 22.96265 -156.34663 37904 ft 427 kts 236°
2026-04-20 21:32 22.94534 -156.37301 37654 ft 427 kts 236°
2026-04-20 21:32 22.92815 -156.39922 37407 ft 426 kts 236°
2026-04-20 21:32 22.91093 -156.42545 37155 ft 427 kts 236°
2026-04-20 21:32 22.89383 -156.45147 36901 ft 428 kts 236°
2026-04-20 21:33 22.87645 -156.47792 36658 ft 430 kts 236°
2026-04-20 21:33 22.85898 -156.50447 36409 ft 432 kts 236°
2026-04-20 21:33 22.84147 -156.53106 36158 ft 433 kts 236°
2026-04-20 21:33 22.82384 -156.55784 35753 ft 439 kts 236°
2026-04-20 21:34 22.80599 -156.58495 35305 ft 444 kts 235°
2026-04-20 21:34 22.78817 -156.61195 34865 ft 449 kts 235°
2026-04-20 21:34 22.76987 -156.63969 34411 ft 454 kts 235°
2026-04-20 21:34 22.75137 -156.66773 33962 ft 457 kts 235°
2026-04-20 21:35 22.73291 -156.69564 33513 ft 461 kts 235°
2026-04-20 21:35 22.71414 -156.72398 33064 ft 464 kts 235°
2026-04-20 21:35 22.69522 -156.75257 32609 ft 466 kts 235°
2026-04-20 21:35 22.67625 -156.78122 32071 ft 469 kts 235°
2026-04-20 21:36 22.65714 -156.80995 31521 ft 471 kts 234°
2026-04-20 21:36 22.63733 -156.83788 30977 ft 474 kts 232°
2026-04-20 21:36 22.61651 -156.86564 30426 ft 477 kts 231°
2026-04-20 21:36 22.59515 -156.89341 29875 ft 480 kts 231°
2026-04-20 21:37 22.57381 -156.92093 29331 ft 482 kts 231°
2026-04-20 21:37 22.55213 -156.94892 28769 ft 484 kts 231°
2026-04-20 21:37 22.53046 -156.97700 28225 ft 486 kts 231°
2026-04-20 21:37 22.50873 -157.00525 27673 ft 488 kts 231°
2026-04-20 21:38 22.48696 -157.03359 27124 ft 490 kts 231°
2026-04-20 21:38 22.46536 -157.06171 26576 ft 493 kts 231°
2026-04-20 21:38 22.44334 -157.09039 26025 ft 494 kts 231°
2026-04-20 21:38 22.42131 -157.11906 25475 ft 496 kts 232°
2026-04-20 21:39 22.39946 -157.14746 24922 ft 479 kts 232°
2026-04-20 21:39 22.37890 -157.17415 24376 ft 457 kts 232°
2026-04-20 21:39 22.35894 -157.20003 23822 ft 438 kts 232°
2026-04-20 21:39 22.33952 -157.22523 23347 ft 430 kts 232°
2026-04-20 21:40 22.32071 -157.24967 22973 ft 425 kts 232°
2026-04-20 21:40 22.30129 -157.27492 22597 ft 447 kts 232°
2026-04-20 21:40 22.28087 -157.30149 22245 ft 468 kts 232°
2026-04-20 21:40 22.26014 -157.32839 22113 ft 463 kts 232°
2026-04-20 21:41 22.23975 -157.35480 22091 ft 462 kts 232°
2026-04-20 21:41 22.21912 -157.38146 22084 ft 463 kts 232°
2026-04-20 21:41 22.19849 -157.40814 22082 ft 463 kts 232°
2026-04-20 21:41 22.17781 -157.43487 21991 ft 463 kts 232°
2026-04-20 21:42 22.15717 -157.46155 21848 ft 462 kts 232°
2026-04-20 21:42 22.13654 -157.48819 21733 ft 462 kts 232°
2026-04-20 21:42 22.11591 -157.51477 21606 ft 461 kts 232°
2026-04-20 21:42 22.09553 -157.54096 21477 ft 460 kts 232°
2026-04-20 21:43 22.07497 -157.56736 21362 ft 459 kts 232°
2026-04-20 21:43 22.05442 -157.59378 21231 ft 458 kts 232°
2026-04-20 21:43 22.03391 -157.62021 21105 ft 456 kts 232°
2026-04-20 21:43 22.01385 -157.64630 20981 ft 456 kts 232°
2026-04-20 21:44 21.99377 -157.67269 20858 ft 455 kts 232°
2026-04-20 21:44 21.97373 -157.69910 20731 ft 454 kts 233°
2026-04-20 21:44 21.95372 -157.72555 20606 ft 453 kts 233°
2026-04-20 21:44 21.93448 -157.75099 20245 ft 454 kts 233°
2026-04-20 21:45 21.91461 -157.77723 19717 ft 449 kts 232°
2026-04-20 21:45 21.90154 -157.79446 19370 ft 446 kts 232°
2026-04-20 21:45 21.88599 -157.81495 18949 ft 442 kts 232°
2026-04-20 21:45 21.86669 -157.84053 18448 ft 436 kts 234°
2026-04-20 21:46 21.85021 -157.86703 18079 ft 420 kts 241°
2026-04-20 21:46 21.83672 -157.89400 17697 ft 395 kts 244°
2026-04-20 21:46 21.82504 -157.91992 17318 ft 374 kts 245°
2026-04-20 21:46 21.81441 -157.94425 17124 ft 351 kts 246°
2026-04-20 21:47 21.80407 -157.96784 17056 ft 347 kts 245°
2026-04-20 21:47 21.79371 -157.99129 16595 ft 345 kts 245°
2026-04-20 21:47 21.78337 -158.01443 16150 ft 339 kts 245°
2026-04-20 21:47 21.77318 -158.03705 15703 ft 335 kts 245°
2026-04-20 21:48 21.76304 -158.05947 15251 ft 337 kts 245°
2026-04-20 21:48 21.75277 -158.08212 14803 ft 335 kts 245°
2026-04-20 21:48 21.74258 -158.10455 14361 ft 332 kts 244°
2026-04-20 21:48 21.73242 -158.12689 13900 ft 331 kts 244°
2026-04-20 21:49 21.72244 -158.14883 13450 ft 330 kts 244°
2026-04-20 21:49 21.71237 -158.17094 13004 ft 327 kts 244°
2026-04-20 21:49 21.70234 -158.19285 12556 ft 324 kts 244°
2026-04-20 21:49 21.69251 -158.21460 12099 ft 321 kts 244°
2026-04-20 21:50 21.68268 -158.23624 11652 ft 321 kts 244°
2026-04-20 21:50 21.67285 -158.25773 11195 ft 321 kts 244°
2026-04-20 21:50 21.66300 -158.27929 10749 ft 320 kts 244°
2026-04-20 21:50 21.65325 -158.30065 10290 ft 321 kts 244°
2026-04-20 21:51 21.64341 -158.32214 9847 ft 311 kts 244°
2026-04-20 21:51 21.63418 -158.34231 9397 ft 290 kts 243°
2026-04-20 21:51 21.62509 -158.36120 9038 ft 288 kts 238°
2026-04-20 21:51 21.61214 -158.37762 8638 ft 290 kts 217°
2026-04-20 21:52 21.59467 -158.38851 8204 ft 287 kts 204°
2026-04-20 21:52 21.57654 -158.39664 7794 ft 285 kts 201°
2026-04-20 21:52 21.55813 -158.40432 7383 ft 283 kts 201°
2026-04-20 21:52 21.53971 -158.41197 6993 ft 281 kts 201°
2026-04-20 21:53 21.52152 -158.41962 6619 ft 279 kts 201°
2026-04-20 21:53 21.50314 -158.42619 6242 ft 277 kts 191°
2026-04-20 21:53 21.48439 -158.42628 6036 ft 272 kts 166°
2026-04-20 21:53 21.46741 -158.41734 5983 ft 274 kts 140°
2026-04-20 21:54 21.45418 -158.40246 5606 ft 270 kts 128°
2026-04-20 21:54 21.44291 -158.38641 5220 ft 276 kts 126°
2026-04-20 21:54 21.43165 -158.36981 4857 ft 274 kts 126°
2026-04-20 21:54 21.42035 -158.35341 4470 ft 271 kts 127°
2026-04-20 21:55 21.40948 -158.33770 4123 ft 256 kts 127°
2026-04-20 21:55 21.39920 -158.32289 3991 ft 243 kts 127°
2026-04-20 21:55 21.38908 -158.30837 3989 ft 241 kts 127°
2026-04-20 21:55 21.37898 -158.29389 3998 ft 242 kts 127°
2026-04-20 21:56 21.36898 -158.27966 4003 ft 242 kts 127°
2026-04-20 21:56 21.35880 -158.26521 3994 ft 242 kts 127°
2026-04-20 21:56 21.34857 -158.25077 3995 ft 243 kts 127°
2026-04-20 21:56 21.33848 -158.23657 3997 ft 242 kts 127°
2026-04-20 21:57 21.32946 -158.22158 3978 ft 236 kts 111°
2026-04-20 21:57 21.32647 -158.20461 3985 ft 230 kts 94°
2026-04-20 21:57 21.32598 -158.18725 3996 ft 232 kts 91°
2026-04-20 21:57 21.32578 -158.17014 3995 ft 231 kts 92°
2026-04-20 21:58 21.32544 -158.15273 3763 ft 234 kts 92°
2026-04-20 21:58 21.32533 -158.13520 3463 ft 232 kts 90°
2026-04-20 21:58 21.32542 -158.11811 3167 ft 230 kts 91°
2026-04-20 21:58 21.32544 -158.10105 2867 ft 227 kts 91°
2026-04-20 21:59 21.32543 -158.08424 2572 ft 225 kts 91°
2026-04-20 21:59 21.32542 -158.06745 2281 ft 225 kts 91°
2026-04-20 21:59 21.32545 -158.05074 1986 ft 217 kts 91°
2026-04-20 21:59 21.32545 -158.03555 1701 ft 196 kts 91°
2026-04-20 22:00 21.32545 -158.02155 1449 ft 178 kts 92°
2026-04-20 22:00 21.32541 -158.00822 1219 ft 178 kts 92°
2026-04-20 22:00 21.32538 -157.99531 987 ft 165 kts 93°
2026-04-20 22:00 21.32538 -157.98326 744 ft 163 kts 92°
2026-04-20 22:01 21.32541 -157.97129 559 ft 160 kts 93°
2026-04-20 22:01 21.32544 -157.95935 336 ft 161 kts 91°
2026-04-20 22:01 21.32544 -157.94734 177 ft 161 kts 92°
2026-04-20 22:01 21.32531 -157.93560 35 ft 147 kts 91°
2026-04-20 22:02 21.32528 -157.92692 32 ft 91 kts 90°
2026-04-20 22:02 21.32560 -157.92265 32 ft 34 kts 62°
2026-04-20 22:02 21.32674 -157.92054 31 ft 31 kts 59°
2026-04-20 22:02 21.32733 -157.91956 31 ft 6 kts 53°
2026-04-20 22:03 21.32753 -157.91929 31 ft 4 kts 51°
2026-04-20 22:03 21.32772 -157.91905 31 ft 4 kts 49°
2026-04-20 22:03 21.32798 -157.91877 30 ft 7 kts 38°
2026-04-20 22:03 21.32857 -157.91848 31 ft 11 kts 13°
2026-04-20 22:04 21.32898 -157.91834 31 ft 4 kts 34°
2026-04-20 22:04 21.32925 -157.91779 31 ft 9 kts 72°
2026-04-20 22:04 21.32932 -157.91755 31 ft 1 kts 72°
2026-04-20 22:04 21.32933 -157.91751 31 ft 0 kts 72°